Powrót do katalogu

STARLINK-34417

AktywnyŁącznośćVLEO
NORAD 64617·PAYLOAD·🇺🇸 United States

Wystrzelony Jun 25, 2025 z Cape Canaveral Space Force Station

Loading…

Następne Przeloty (najbliższe 24 godziny)

TLE

ŚwieżeSource: CelesTrak SupGP

Epoka: Sep 15, 2026, 02:47 UTC

1 64617C 25137Z   26258.11645833  .00006514  00000+0  19248-3 0  2586
2 64617  53.1580 159.0122 0001278  87.4075 295.0373 15.34381827    19

Śledź STARLINK-34417 w czasie rzeczywistym z AllMySat

Download on the App Store